Home   Weather   Groton   Past weeks
Flag for USA

Past Weather in Groton, Connecticut, USA — Yesterday and Last 2 Weeks

Now
78 °F

Clear.


Feels Like: 80 °F
Forecast: 79 / 71 °F
Wind: 5 mph from South

Location: Groton / New London Airport

Current Time: Jul 21, 2019 at 9:58:35 pm

Latest Report: Jul 21, 2019 at 8:56 pm


Visibility: 10 mi

Pressure: 29.77 "Hg

Humidity: 79%

Dew Point: 71 °F

Location of GrotonLocation

Past Weather in Groton — Graph

°F

Groton Temperature Yesterday

Maximum temperature yesterday: 91 °F (at 4:56 pm)
Minimum temperature yesterday: 75 °F (at 5:40 am)
Average temperature yesterday: 84 °F

High & Low Weather Summary for the Past Weeks

 TemperatureHumidityPressure
High94 °F (Jul 21, 3:56 pm)91% (Jul 7, 1:07 am)30.08 "Hg (Jul 7, 1:07 am)
Low62 °F (Jul 9, 5:30 am)34% (Jul 14, 5:56 pm)29.66 "Hg (Jul 12, 4:41 pm)
Average76 °F73%29.90 "Hg
* Reported Jul 6 7:56 pm — Jul 21 7:56 pm, Groton. Weather by CustomWeather, © 2019

Note: Actual official high and low records may vary slightly from our data, if they occured in-between our weather recording intervals... More about our weather records

Advertising

Groton Weather History for the Previous 24 Hours

Scroll right to see more
 ConditionsComfort  
Time TempWeatherWind HumidityBarometerVisibility
7:56 pm
Sun, Jul 21
86 °FSunny.No wind65%29.74 "Hg10 mi
6:56 pm92 °FSunny.7 mph54%29.73 "Hg10 mi
5:56 pm94 °FSunny.13 mph51%29.72 "Hg10 mi
4:56 pm94 °FSunny.10 mph51%29.72 "Hg10 mi
3:56 pm94 °FSunny.13 mph51%29.72 "Hg10 mi
2:56 pm92 °FSunny.15 mph54%29.73 "Hg10 mi
1:56 pm89 °FSunny.10 mph61%29.74 "Hg10 mi
12:56 pm89 °FSunny.12 mph61%29.75 "Hg10 mi
11:56 am86 °FSunny.13 mph67%29.75 "Hg9 mi
10:56 am87 °FScattered clouds.7 mph67%29.76 "Hg10 mi
9:56 am87 °FSunny.7 mph67%29.77 "Hg10 mi
8:56 am89 °FPassing clouds.7 mph61%29.78 "Hg10 mi
7:56 am85 °FSunny.6 mph68%29.77 "Hg10 mi
6:56 am79 °FSunny.6 mph82%29.74 "Hg7 mi
5:56 am78 °FSunny.6 mph82%29.73 "Hg6 mi
4:56 am77 °FClear.No wind85%29.74 "Hg8 mi
3:56 am77 °FClear.6 mph82%29.74 "Hg8 mi
2:56 am79 °FClear.3 mph79%29.75 "Hg10 mi
1:56 am83 °FClear.3 mph72%29.75 "Hg10 mi
12:56 am84 °FClear.8 mph70%29.74 "Hg10 mi
11:56 pm
Sat, Jul 20
85 °FClear.10 mph70%29.75 "Hg10 mi
10:56 pm84 °FClear.6 mph72%29.77 "Hg10 mi
9:56 pm82 °FClear.5 mph74%29.78 "Hg10 mi
Weather by CustomWeather, © 2019

See weather overview